Miscellaneous Local Product
Issued by NWS Hastings, NE

Home | Current Version | Previous Version | Graphics & Text | Print | Product List | Glossary On
Versions: 1 2 3 4 5 6 7 8 9 10 11 12 13 14 15 16 17 18 19 20 21 22 23 24 25 26 27 28 29 30 31 32 33 34 35 36 37 38 39 40 41 42 43 44 45 46 47 48 49 50
000
AXUS43 KGID 271602
MISGRI

GID CWA HOURLY WEATHER ROUNDUP
NATIONAL WEATHER SERVICE HASTINGS NE
1100 AM CDT FRI MAR 27 2015

NOTE: "FAIR" INDICATES FEW OR NO CLOUDS BELOW 12,000 FEET WITH NO
SIGNIFICANT WEATHER AND/OR OBSTRUCTIONS TO VISIBILITY.

...SOUTH CENTRAL NEBRASKA...

CITY           SKY/WX    TMP DP  RH WIND       PRES   REMARKS
GRAND ISLAND   CLOUDY    34  20  56 VRB5      30.26F WCI  30
HASTINGS       CLOUDY    33  23  66 S6        30.25S WCI  28
KEARNEY        CLOUDY    34  25  69 SE5       30.25R WCI  30
ORD            CLOUDY    33  23  66 S8        30.21F WCI  26
YORK           SUNNY     32  23  69 CALM      30.28S
AURORA         CLOUDY    31  21  66 E3        30.26F
LEXINGTON      CLOUDY    36  26  66 S9        30.23S WCI  29
HOLDREGE       CLOUDY    34  24  67 SE5       30.24R WCI  30
HEBRON         SUNNY     34  20  57 E5        30.29S WCI  30

...NEBRASKA PANHANDLE...

CITY           SKY/WX    TMP DP  RH WIND       PRES   REMARKS
CHADRON        CLOUDY    50  40  68 NW12      30.07S
ALLIANCE       CLOUDY    51  39  63 W22       30.08F
SCOTTSBLUFF    CLOUDY    45  38  76 W10       30.12F
SIDNEY         PTSUNNY   46  35  65 SW15      30.13F

...WESTERN AND NORTH CENTRAL NEBRASKA...

CITY           SKY/WX    TMP DP  RH WIND       PRES   REMARKS
VALENTINE      CLOUDY    37  29  72 S15       30.08F WCI  28
AINSWORTH      CLOUDY    36  28  74 S15       30.12F WCI  26
ONEILL         CLOUDY    30  24  78 SE10      30.20F WCI  21
BROKEN BOW     CLOUDY    35  24  64 S13       30.19F WCI  26
IMPERIAL         N/A     41  35  79 SW13      30.17F
NORTH PLATTE   CLOUDY    35  31  85 S10       30.18F WCI  27
MCCOOK         CLOUDY    36  30  79 S9        30.22F WCI  29

...EASTERN NEBRASKA...

CITY           SKY/WX    TMP DP  RH WIND       PRES   REMARKS
NORFOLK        MOSUNNY   29  17  61 CALM      30.25F
SO SIOUX CITY  MOSUNNY   31  15  52 VRB3      30.29F
TEKAMAH        SUNNY     32  15  49 W10G25    30.30S WCI  24
COLUMBUS       SUNNY     32  16  51 NE3       30.29F
ALBION         CLOUDY    31  20  64 S5        30.25S WCI  26
OMAHA EPPLEY   PTSUNNY   33  19  56 CALM      30.30S
OFFUTT AFB     SUNNY     33  17  53 VRB1      30.29S
MILLARD        SUNNY     31  18  58 NW6       30.31R WCI  25
LINCOLN        SUNNY     33  21  61 CALM      30.31S
NEBRASKA CITY  SUNNY     32  17  53 N3        30.30R
BEATRICE       SUNNY     32  20  62 NE5       30.30S WCI  27
FALLS CITY     MOSUNNY   33  20  58 NE8       30.30S WCI  26

...NORTHERN KANSAS...

CITY           SKY/WX    TMP DP  RH WIND       PRES   REMARKS
GOODLAND       PTSUNNY   42  32  67 S12       30.20S
HILL CITY      CLOUDY    36  29  75 S3        30.27R
NORTON         CLOUDY    36  25  64 S5        30.24F WCI  32
PHILLIPSBURG   CLOUDY    39  27  60 E3        30.27S
SMITH CENTER   CLOUDY    36  25  64 NE5       30.27F WCI  32
BELOIT         SUNNY     39  27  60 NE7       30.28F WCI  34
HAYS           PTSUNNY   37  21  52 E9        30.27F WCI  31
RUSSELL        PTSUNNY   40  26  57 VRB6      30.26F
CONCORDIA      SUNNY     36  27  69 VRB6      30.28F WCI  31
SALINA         MOSUNNY   40  27  59 N7        30.30S
TOPEKA         SUNNY     38  24  57 N15G22    30.30  WCI  29



USA.gov is the U.S. government's official web portal to all federal, state and local government web resources and services.